Weather in Donduseni

Moldova     48˚14′32″N   27˚36′23″E
temp.,
°C
wind,
m/s
gust,
m/s
humid.,
%
clouds,
%
prec.,
mm/h
press.,
hPa
HPBL,
m
28 november, sat
sat2823:00+2˚nw3582100 0.0 1021116
02:00+2˚nnw2290100 0.0 102176
05:00+3˚nnw2294100 0.0 101961
08:00+3˚wnw2396100 0.3 1020134
11:00+3˚wnw3484100 0.2 1020469
14:00+4˚nw3472100 0.2 1019659
17:00+3˚nw2376100 0.0 1019193
20:00+2˚wnw2391100 0.0 1019199
29 november, sun
sun2923:00+1˚wnw239195 0.0 102088
02:00nw229396 0.0 102051
05:00nw119182 0.0 102021
08:00n118979 0.0 102021
11:00+2˚e117798 0.0 1021381
14:00+2˚ese117799 0.0 1020454
17:00+1˚e1297100 0.1 1021141
20:00+1˚ene1296100 0.1 1022172
30 november, mon
mon3023:00+1˚nne2296100 0.2 1022143
02:00+1˚nne2390100 0.3 1023204
05:00n348691 0.0 1023179
08:00−1˚n359255 0.0 1025188
11:00+1˚n34720 0.0 1026497
14:00+2˚n45630 0.0 1026728
17:00nnw37751 0.0 1027245
20:00−1˚nnw48810 0.0 1028277
1 december, tue
tue123:00−2˚n37810 0.0 1028313
02:00−2˚nnw36810 0.0 1029245
05:00−3˚n35830 0.0 1029212
08:00−3˚n35860 0.0 1029162
11:00nne34690 0.0 1029439
14:00+1˚nne34610 0.0 1027532
17:00−2˚ne33770 0.0 102768
20:00−3˚ne35810 0.0 1028140
2 december, wed
wed223:00−3˚ne24825 0.0 1028111
02:00−3˚ne238542 0.0 1027142
05:00−3˚ne349274 0.0 1027174
08:00−3˚ene239477 0.1 1027164
11:00−1˚ese228797 0.0 1027322
14:00ese128798 0.0 1026283
17:00e2391100 0.0 1026116
20:00se2392100 0.0 1027148